Showing default

COSMOS 81, 1571

Orbit data source: Space-Track

COSMOS 81, 1571 is a payload satellite owned by OKB-10 (CIS) in LEO that was launched on Fri, 03 Sep 1965 UTC via a KOSMOS 65S3 launch vehicle from the Tyuratam Missile And Space Complex (TTMTR). Payload-class satellites include a variety of spacecraft equipped with specific instruments for various scientific and technological missions. These include communications satellites like Starlink; space stations such as the ISS; scientific satellites like the Hubble; Earth observation satellites from companies like Planet Labs, Umbra, and HawkEye 360; GPS; miniature CubeSats for education and research; and military/defense satellites.

Loading next visibility...
Identifier
1571, 1965-070B
Orbit
LEO
Country
Flag of CISCIS
Related business
Manufacturer
OKB-10
Mission
Defense Communications
Bus & Motor
STRELA-1 11F610, Unknown motor
Mass
50 kg wet, 50 kg dry
Launch date (UTC)
1965-09-03 (60 years ago)
Launch vehicle
KOSMOS 65S3
Launch site
Tyuratam Missile And Space Complex (TTMTR)
Object type
Payload
Rocket body
Debris
Shape & HBR
Poly, 0.4 m
Radar Cross Section
0.731 m², Medium (>0.1 m² and < 1m²)

Expand to show TLE details & history
Last TLE update: 23 hours ago

TLE from 23 hours ago
0 COSMOS 81
1 01571U 65070B   25257.29067394 -.00000080  00000-0  99601-4 0  9991
2 01571  56.0580 224.4044 0089855  77.7469  63.8639 12.48863337738159
Epoch: 2025-09-14T06:58Z
TLE epoch observation values (Epoch: 2025-09-14T06:58:34.228Z)
Latitude
30.38178°
Longitude
-76.86864°
Altitude
1,440.722 km
Speed
7.159 km/s
True Right ascension
01h 25m 08s
True Declination
30° 14' 42"
Sunlit
Object was in full shadow at epoch
Visualization orbit readout
Latitude
Unknown
Longitude
Unknown
Altitude
Unknown
Speed
Unknown
Apparent Right ascension
Unknown
Apparent Declination
Unknown
Sunlit
N/A
Visualization observer readout
Local Sidereal Time
23:00:40
Azimuth
Unknown
Elevation
Unknown
Doppler factor
Unknown
Orbital elements
Apogee altitude
1,539.587 km
Perigee altitude
1,398.565 km
Semi-major axis
7,847.213 km
Eccentricity
0.00899
Inclination
56.058°
RAAN
224.4044°
Arg. of periapsis
77.7469°
True anomaly
64.79283°
Mean anomaly
63.8639°
Eccentric anomaly
64.32791°
Mean motion
3.12227 °/min
Orbital period
115.3 mins
BSTAR
0.000099601
Loading maneuver chart data...
Computing Atmospheric mass density...
Loading historical data...
Loading historical data...
Loading historical data...
Loading historical data...
Loading historical data...
Loading historical data...
Loading historical data...
Other satellites on launch #70 in the year 1965 (1965-09-03 UTC)

Documentation

Showing up to 5 results
|